Date String (YYYY-MM-DD hh:mm:ss) UTC,Instrument flags,Ambient pressure (hPa),Sample flow (lpm),Bypass flow (lpm),Sample temperature (°C),Ambient temperature (°C),ASC tube jacket temperature (°C),LED temperature (°C),Box temperature (°C),Sample RH (%),Span deviation,Mass concentration (μg/m³),Mass concentration (μg/m³),Mass concentration (μg/m³)
DateTimeUTC,F1_M11,P_M11,Q1_M11,Q2_M11,T1_M11,T2_M11,T3_M11,T4_M11,T5_M11,U1_M11,ZSPAN_M11,X2_M11,X0_M11,X1_M11
2022-06-10 12:00:00,,0827.6,4.99,0.00,29.7,28.6,00.0,38.6,31.5,22.8,0000.0,0004.85,0012.59,0003.38
2022-06-10 12:01:00,,0827.6,5.00,0.00,29.7,28.6,00.0,38.6,31.5,22.8,0000.0,0004.81,0012.41,0003.38
2022-06-10 12:02:00,,0827.5,5.01,0.00,29.7,28.6,00.0,38.6,31.5,22.8,0000.0,0004.82,0012.34,0003.37
2022-06-10 12:03:00,,0827.5,5.00,0.00,29.6,28.6,00.0,38.6,31.5,22.7,0000.0,0004.74,0012.32,0003.36
2022-06-10 12:04:00,,0827.5,5.00,0.00,29.7,28.6,00.0,38.6,31.5,22.8,0000.0,0004.73,0012.30,0003.35
2022-06-10 12:05:00,,0827.5,5.00,0.00,29.7,28.6,00.0,38.6,31.5,22.8,0000.0,0004.76,0012.36,0003.36
2022-06-10 12:06:00,,0827.5,5.00,0.00,29.6,28.6,00.0,38.6,31.5,22.8,0000.0,0004.81,0012.57,0003.36
2022-06-10 12:07:00,,0827.5,4.99,0.00,29.7,28.6,00.0,38.6,31.5,22.8,0000.0,0004.83,0012.75,0003.35
2022-06-10 12:08:00,,0827.5,5.00,0.00,29.6,28.6,00.0,38.6,31.5,22.7,0000.0,0004.87,0012.38,0003.37
2022-06-10 12:09:00,,0827.5,5.00,0.00,29.6,28.6,00.0,38.6,31.5,22.7,0000.0,0004.87,0011.61,0003.37
2022-06-10 12:10:00,,0827.5,5.00,0.00,29.6,28.6,00.0,38.6,31.5,22.7,0000.0,0004.85,0011.74,0003.36
2022-06-10 12:11:00,,0827.5,4.99,0.00,29.7,28.6,00.0,38.6,31.5,22.7,0000.0,0004.88,0011.56,0003.34
2022-06-10 12:12:00,,0827.4,5.01,0.00,29.7,28.6,00.0,38.6,31.5,22.6,0000.0,0004.92,0011.50,0003.35
2022-06-10 12:13:00,,0827.4,4.99,0.00,29.6,28.6,00.0,38.6,31.5,22.6,0000.0,0004.92,0011.88,0003.34
2022-06-10 12:14:00,,0827.5,5.00,0.00,29.6,28.6,00.0,38.6,31.5,22.6,0000.0,0004.99,0012.63,0003.33
2022-06-10 12:15:00,,0827.5,5.01,0.00,29.6,28.6,00.0,38.6,31.5,22.6,0000.0,0005.02,0013.48,0003.33
2022-06-10 12:16:00,,0827.5,4.99,0.00,29.6,28.6,00.0,38.6,31.5,22.9,0000.0,0004.99,0014.04,0003.33
2022-06-10 12:17:00,,0827.5,4.99,0.00,29.7,28.6,00.0,38.6,31.5,22.9,0000.0,0005.00,0014.17,0003.32
2022-06-10 12:18:00,,0827.5,4.99,0.00,29.6,28.6,00.0,38.6,31.5,22.9,0000.0,0005.00,0014.09,0003.33
2022-06-10 12:19:00,,0827.5,5.00,0.00,29.7,28.6,00.0,38.6,31.5,22.8,0000.0,0004.97,0014.15,0003.32
2022-06-10 12:20:00,,0827.5,5.01,0.00,29.7,28.6,00.0,38.6,31.5,22.6,0000.0,0004.97,0014.70,0003.30
2022-06-10 12:21:00,,0827.4,4.99,0.00,29.7,28.6,00.0,38.6,31.5,22.5,0000.0,0004.98,0014.37,0003.28
2022-06-10 12:22:00,,0827.4,5.00,0.00,29.7,28.6,00.0,38.6,31.5,22.4,0000.0,0004.94,0014.13,0003.27
2022-06-10 12:23:00,,0827.4,5.00,0.00,29.7,28.6,00.0,38.6,31.5,22.4,0000.0,0004.86,0014.04,0003.24
2022-06-10 12:24:00,,0827.4,5.01,0.00,29.7,28.6,00.0,38.6,31.5,22.4,0000.0,0004.77,0013.61,0003.23
2022-06-10 12:25:00,,0827.4,5.01,0.00,29.7,28.6,00.0,38.6,31.5,22.4,0000.0,0004.74,0012.80,0003.21
2022-06-10 12:26:00,,0827.4,5.01,0.00,29.7,28.6,00.0,38.6,31.5,22.5,0000.0,0004.78,0012.11,0003.20
2022-06-10 12:27:00,,0827.4,5.00,0.00,29.7,28.6,00.0,38.6,31.5,22.5,0000.0,0004.79,0011.68,0003.18
2022-06-10 12:28:00,,0827.4,5.00,0.00,29.7,28.6,00.0,38.6,31.5,22.6,0000.0,0004.79,0012.17,0003.17
2022-06-10 12:29:00,,0827.4,4.99,0.00,29.7,28.6,00.0,38.6,31.5,23.0,0000.0,0004.71,0012.02,0003.14
2022-06-10 12:30:00,,0827.5,5.01,0.00,29.7,28.6,00.0,38.6,31.5,23.0,0000.0,0004.70,0012.09,0003.13
2022-06-10 12:31:00,,0827.5,4.99,0.00,29.7,28.7,00.0,38.6,31.5,23.1,0000.0,0004.70,0011.86,0003.13
2022-06-10 12:32:00,,0827.5,5.01,0.00,29.7,28.6,00.0,38.6,31.5,23.1,0000.0,0004.68,0011.74,0003.14
2022-06-10 12:33:00,,0827.4,4.99,0.00,29.7,28.6,00.0,38.6,31.5,22.9,0000.0,0004.71,0013.39,0003.14
2022-06-10 12:34:00,,0827.5,5.01,0.00,29.7,28.6,00.0,38.6,31.5,23.1,0000.0,0004.75,0013.52,0003.15
2022-06-10 12:35:00,,0827.4,5.00,0.00,29.7,28.6,00.0,38.6,31.5,23.0,0000.0,0004.80,0013.79,0003.15
2022-06-10 12:36:00,,0827.5,5.00,0.00,29.7,28.6,00.0,38.6,31.5,23.1,0000.0,0004.81,0013.91,0003.15
2022-06-10 12:37:00,,0827.5,5.01,0.00,29.7,28.7,00.0,38.6,31.5,23.1,0000.0,0004.77,0013.78,0003.15
2022-06-10 12:38:00,,0827.5,5.01,0.00,29.7,28.7,00.0,38.6,31.5,22.8,0000.0,0004.73,0013.50,0003.16
2022-06-10 12:39:00,,0827.4,5.01,0.00,29.7,28.7,00.0,38.6,31.5,22.9,0000.0,0004.70,0013.13,0003.17
2022-06-10 12:40:00,,0827.4,5.00,0.00,29.7,28.7,00.0,38.6,31.6,22.6,0000.0,0004.70,0012.64,0003.17
2022-06-10 12:41:00,,0827.4,5.00,0.00,29.7,28.7,00.0,38.6,31.6,22.8,0000.0,0004.69,0012.70,0003.17
2022-06-10 12:42:00,,0827.4,5.00,0.00,29.7,28.7,00.0,38.6,31.6,22.7,0000.0,0004.68,0013.30,0003.17
2022-06-10 12:43:00,,0827.5,5.01,0.00,29.7,28.7,00.0,38.6,31.5,22.9,0000.0,0004.69,0014.02,0003.15
2022-06-10 12:44:00,,0827.5,4.99,0.00,29.7,28.7,00.0,38.6,31.5,23.1,0000.0,0004.69,0012.80,0003.15
2022-06-10 12:45:00,,0827.5,5.00,0.00,29.7,28.7,00.0,38.6,31.5,23.4,0000.0,0004.67,0012.73,0003.15
2022-06-10 12:46:00,,0827.5,5.00,0.00,29.7,28.7,00.0,38.6,31.6,23.4,0000.0,0004.65,0012.61,0003.15
2022-06-10 12:47:00,,0827.5,5.00,0.00,29.7,28.7,00.0,38.6,31.5,23.4,0000.0,0004.65,0012.88,0003.16
2022-06-10 12:48:00,,0827.5,5.01,0.00,29.7,28.7,00.0,38.6,31.6,23.2,0000.0,0004.68,0013.16,0003.16
2022-06-10 12:49:00,,0827.5,4.99,0.00,29.7,28.7,00.0,38.6,31.6,23.2,0000.0,0004.68,0013.16,0003.16
2022-06-10 12:50:00,,0827.5,5.00,0.00,29.7,28.7,00.0,38.6,31.6,23.0,0000.0,0004.67,0013.03,0003.14
2022-06-10 12:51:00,,0827.5,5.00,0.00,29.7,28.7,00.0,38.6,31.6,23.4,0000.0,0004.68,0013.12,0003.12
2022-06-10 12:52:00,,0827.5,5.00,0.00,29.7,28.7,00.0,38.6,31.6,23.5,0000.0,0004.75,0013.18,0003.13
2022-06-10 12:53:00,,0827.5,4.99,0.00,29.7,28.7,00.0,38.6,31.6,23.4,0000.0,0004.74,0012.73,0003.13
2022-06-10 12:54:00,,0827.5,5.01,0.00,29.7,28.7,00.0,38.6,31.6,23.6,0000.0,0004.73,0012.57,0003.13
2022-06-10 12:55:00,,0827.5,5.00,0.00,29.7,28.7,00.0,38.7,31.6,23.8,0000.0,0004.71,0012.23,0003.13
2022-06-10 12:56:00,,0827.5,4.99,0.00,29.7,28.7,00.0,38.7,31.6,24.1,0000.0,0004.72,0012.36,0003.12
2022-06-10 12:57:00,,0827.5,5.01,0.00,29.7,28.7,00.0,38.7,31.6,23.4,0000.0,0004.74,0012.64,0003.11
2022-06-10 12:58:00,,0827.5,5.01,0.00,29.7,28.7,00.0,38.7,31.6,23.7,0000.0,0004.79,0012.51,0003.10
2022-06-10 12:59:00,,0827.5,5.00,0.00,29.7,28.7,00.0,38.7,31.6,23.8,0000.0,0004.78,0012.62,0003.09
